User: anonymous   Login
Location: Tyler Bend Campground
(35.9875°N, 92.7606°W)
Time: 18:50:06
(UTC-05:00)
Language:

CZ-2C R/B - Orbit

View from above orbital plane
View from above orbital plane
View from above satellite
View from above satellite

Ground track
Ground track

The orbit data is extracted from the following two-line orbital elements,

1 36089U 09061B   15242.66734432  .00000042  00000-0  22110-4 0  9997
2 36089 098.0685 262.5654 0080888 267.3273 200.6433 14.49480631306597
Epoch (UTC): 30 August 2015 16:00:58
Eccentricity: 0.0080888
inclination: 98.0685°
perigee height: 670 km
apogee height: 785 km
right ascension of ascending node: 262.5654°
argument of perigee: 267.3273°
revolutions per day: 14.49480631
mean anomaly at epoch: 200.6433°
orbit number at epoch: 30659

The dashed part of the orbit path shows where the satellite is in the earth's shadow,  

DLR